Previsão horária em Aba-el-Baul

Hoje, 18 Abril, Domingo

Tempo Temperatura Precipitação Vento Pressão Humidade
00:00 +26°C° 0 mm 2 m/s 755 mmHg 20%
01:00 +26°C° 0 mm 3 m/s 755 mmHg 22%
02:00 +26°C° 0 mm 3 m/s 755 mmHg 23%
03:00 +25°C° 0 mm 3 m/s 755 mmHg 24%
04:00 +25°C° 0 mm 3 m/s 755 mmHg 24%
05:00 +25°C° 0 mm 4 m/s 755 mmHg 25%
06:00 +25°C° 0 mm 4 m/s 756 mmHg 25%
07:00 +28°C° 0 mm 5 m/s 756 mmHg 21%
08:00 +32°C° 0 mm 6 m/s 756 mmHg 17%
09:00 +34°C° 0 mm 7 m/s 756 mmHg 13%
10:00 +36°C° 0 mm 7 m/s 756 mmHg 12%
11:00 +38°C° 0 mm 8 m/s 756 mmHg 11%
12:00 +39°C° 0 mm 8 m/s 755 mmHg 10%
13:00 +39°C° 0 mm 8 m/s 755 mmHg 10%
14:00 +39°C° 0 mm 9 m/s 755 mmHg 10%
15:00 +38°C° 0 mm 9 m/s 754 mmHg 11%
16:00 +36°C° 0 mm 7 m/s 754 mmHg 12%
17:00 +34°C° 0 mm 5 m/s 755 mmHg 14%
18:00 +33°C° 0 mm 4 m/s 755 mmHg 15%
19:00 +31°C° 0 mm 3 m/s 755 mmHg 17%
20:00 +29°C° 0 mm 3 m/s 755 mmHg 19%
21:00 +28°C° 0 mm 3 m/s 755 mmHg 20%
22:00 +28°C° 0 mm 3 m/s 755 mmHg 21%
23:00 +28°C° 0 mm 3 m/s 754 mmHg 22%

Amanhã, 19 Abril, Segunda-feira

Tempo Temperatura Precipitação Vento Pressão Humidade
00:00 +28°C° 0 mm 4 m/s 754 mmHg 22%
01:00 +27°C° 0 mm 4 m/s 754 mmHg 23%
02:00 +27°C° 0 mm 4 m/s 754 mmHg 23%
03:00 +26°C° 0 mm 5 m/s 753 mmHg 24%
04:00 +26°C° 0 mm 5 m/s 753 mmHg 24%
05:00 +26°C° 0 mm 5 m/s 754 mmHg 24%
06:00 +27°C° 0 mm 5 m/s 754 mmHg 25%
07:00 +29°C° 0 mm 6 m/s 754 mmHg 21%
08:00 +33°C° 0 mm 7 m/s 754 mmHg 17%
09:00 +35°C° 0 mm 8 m/s 755 mmHg 13%
10:00 +37°C° 0 mm 8 m/s 754 mmHg 12%
11:00 +39°C° 0 mm 7 m/s 754 mmHg 11%
12:00 +40°C° 0 mm 7 m/s 753 mmHg 10%
13:00 +40°C° 0 mm 7 m/s 753 mmHg 10%
14:00 +40°C° 0 mm 8 m/s 752 mmHg 10%
15:00 +40°C° 0 mm 8 m/s 752 mmHg 10%
16:00 +38°C° 0 mm 7 m/s 752 mmHg 13%
17:00 +35°C° 0 mm 6 m/s 752 mmHg 17%
18:00 +33°C° 0 mm 4 m/s 752 mmHg 20%
19:00 +30°C° 0 mm 3 m/s 752 mmHg 23%
20:00 +29°C° 0 mm 2 m/s 753 mmHg 26%
21:00 +27°C° 0 mm 1 m/s 753 mmHg 29%
22:00 +27°C° 0 mm 2 m/s 753 mmHg 28%
23:00 +27°C° 0 mm 2 m/s 752 mmHg 28%

Depois de amanhã, 20 Abril, Terça-feira

Tempo Temperatura Precipitação Vento Pressão Humidade
00:00 +28°C° 0 mm 3 m/s 752 mmHg 27%
01:00 +27°C° 0 mm 3 m/s 752 mmHg 29%
02:00 +27°C° 0 mm 4 m/s 752 mmHg 30%
03:00 +27°C° 0 mm 4 m/s 751 mmHg 31%
04:00 +27°C° 0 mm 3 m/s 752 mmHg 30%
05:00 +27°C° 0 mm 3 m/s 752 mmHg 29%
06:00 +27°C° 0 mm 3 m/s 753 mmHg 28%
07:00 +30°C° 0 mm 4 m/s 753 mmHg 23%
08:00 +34°C° 0 mm 4 m/s 753 mmHg 18%
09:00 +37°C° 0 mm 5 m/s 753 mmHg 14%
10:00 +39°C° 0 mm 5 m/s 753 mmHg 13%
11:00 +41°C° 0 mm 5 m/s 752 mmHg 12%
12:00 +42°C° 0 mm 5 m/s 752 mmHg 11%
13:00 +42°C° 0 mm 5 m/s 751 mmHg 11%
14:00 +42°C° 0 mm 5 m/s 751 mmHg 12%
15:00 +42°C° 0 mm 4 m/s 751 mmHg 12%
16:00 +38°C° 0 mm 4 m/s 751 mmHg 17%
17:00 +35°C° 0 mm 4 m/s 751 mmHg 23%
18:00 +33°C° 0 mm 3 m/s 751 mmHg 28%
19:00 +30°C° 0 mm 3 m/s 751 mmHg 34%
20:00 +29°C° 0 mm 3 m/s 752 mmHg 40%
21:00 +28°C° 0 mm 3 m/s 752 mmHg 47%
22:00 +27°C° 0 mm 3 m/s 752 mmHg 46%
23:00 +27°C° 0 mm 2 m/s 752 mmHg 45%

21 Abril, Quarta-feira

Tempo Temperatura Precipitação Vento Pressão Humidade
00:00 +27°C° 0 mm 2 m/s 751 mmHg 45%
01:00 +27°C° 0 mm 2 m/s 751 mmHg 43%
02:00 +27°C° 0 mm 2 m/s 751 mmHg 41%
03:00 +26°C° 0 mm 2 m/s 751 mmHg 39%
04:00 +27°C° 0 mm 2 m/s 752 mmHg 38%
05:00 +27°C° 0 mm 1 m/s 752 mmHg 36%
06:00 +27°C° 0 mm 1 m/s 753 mmHg 35%
07:00 +30°C° 0 mm 1 m/s 753 mmHg 30%
08:00 +32°C° 0 mm 1 m/s 754 mmHg 25%
09:00 +33°C° 0 mm 0 m/s 754 mmHg 20%
10:00 +34°C° 0 mm 0 m/s 754 mmHg 17%
11:00 +39°C° 0 mm 1 m/s 753 mmHg 15%
12:00 +41°C° 0 mm 1 m/s 753 mmHg 12%
13:00 +41°C° 0 mm 2 m/s 752 mmHg 12%
14:00 +41°C° 0 mm 2 m/s 752 mmHg 11%
15:00 +42°C° 0 mm 3 m/s 751 mmHg 11%
16:00 +39°C° 0 mm 3 m/s 751 mmHg 15%
17:00 +37°C° 0 mm 3 m/s 752 mmHg 18%
18:00 +34°C° 0 mm 3 m/s 752 mmHg 21%
19:00 +33°C° 0 mm 3 m/s 752 mmHg 23%
20:00 +31°C° 0 mm 3 m/s 752 mmHg 25%
21:00 +30°C° 0 mm 3 m/s 753 mmHg 27%
22:00 +30°C° 0 mm 2 m/s 752 mmHg 27%
23:00 +29°C° 0 mm 2 m/s 752 mmHg 27%

22 Abril, Quinta-feira

Tempo Temperatura Precipitação Vento Pressão Humidade
00:00 +29°C° 0 mm 2 m/s 752 mmHg 27%
01:00 +29°C° 0 mm 2 m/s 752 mmHg 26%
02:00 +29°C° 0 mm 3 m/s 752 mmHg 26%
03:00 +29°C° 0 mm 3 m/s 752 mmHg 25%
04:00 +28°C° 0 mm 3 m/s 752 mmHg 30%
05:00 +28°C° 0 mm 3 m/s 753 mmHg 35%
06:00 +28°C° 0 mm 3 m/s 753 mmHg 39%
07:00 +30°C° 0 mm 3 m/s 754 mmHg 33%
08:00 +34°C° 0 mm 3 m/s 754 mmHg 27%
09:00 +36°C° 0 mm 3 m/s 754 mmHg 21%
10:00 +38°C° 0 mm 3 m/s 754 mmHg 18%
11:00 +40°C° 0 mm 3 m/s 754 mmHg 15%
12:00 +42°C° 0 mm 3 m/s 753 mmHg 11%
13:00 +43°C° 0 mm 3 m/s 753 mmHg 10%
14:00 +43°C° 0 mm 3 m/s 752 mmHg 9%
15:00 +43°C° 0 mm 3 m/s 752 mmHg 8%
16:00 +40°C° 0 mm 3 m/s 752 mmHg 10%
17:00 +38°C° 0 mm 3 m/s 752 mmHg 12%
18:00 +36°C° 0 mm 3 m/s 752 mmHg 14%
19:00 +35°C° 0 mm 3 m/s 752 mmHg 15%
20:00 +34°C° 0 mm 3 m/s 752 mmHg 17%
21:00 +31°C° 0 mm 3 m/s 752 mmHg 19%
22:00 +31°C° 0 mm 3 m/s 752 mmHg 21%
23:00 +30°C° 0 mm 3 m/s 752 mmHg 23%

23 Abril, Sexta-feira

Tempo Temperatura Precipitação Vento Pressão Humidade
00:00 +30°C° 0 mm 3 m/s 752 mmHg 25%
01:00 +29°C° 0 mm 3 m/s 752 mmHg 28%
02:00 +28°C° 0 mm 3 m/s 752 mmHg 32%
03:00 +27°C° 0 mm 2 m/s 751 mmHg 35%
04:00 +28°C° 0 mm 3 m/s 752 mmHg 37%
05:00 +28°C° 0 mm 3 m/s 752 mmHg 39%
06:00 +28°C° 0 mm 3 m/s 753 mmHg 41%
07:00 +31°C° 0 mm 3 m/s 753 mmHg 33%
08:00 +35°C° 0 mm 3 m/s 753 mmHg 26%
09:00 +38°C° 0 mm 4 m/s 753 mmHg 18%
10:00 +39°C° 0 mm 3 m/s 753 mmHg 15%
11:00 +42°C° 0 mm 3 m/s 752 mmHg 12%
12:00 +43°C° 0 mm 3 m/s 752 mmHg 9%
13:00 +44°C° 0 mm 3 m/s 751 mmHg 8%
14:00 +43°C° 0 mm 2 m/s 751 mmHg 8%
15:00 +43°C° 0 mm 2 m/s 750 mmHg 7%
16:00 +41°C° 0 mm 2 m/s 750 mmHg 10%
17:00 +39°C° 0 mm 3 m/s 750 mmHg 12%
18:00 +36°C° 0 mm 3 m/s 750 mmHg 15%
19:00 +35°C° 0 mm 3 m/s 750 mmHg 18%
20:00 +34°C° 0 mm 3 m/s 751 mmHg 20%
21:00 +33°C° 0 mm 3 m/s 751 mmHg 23%
22:00 +31°C° 0 mm 3 m/s 751 mmHg 24%
23:00 +30°C° 0 mm 3 m/s 751 mmHg 25%
Mostrar mais

Necessitamos do seu Consentimento

A Meteoprog e os seus Fornecedores de Serviços podem armazenar e aceder a dados pessoais como cookies, identificadores do dispositivo ou outras tecnologias semelhantes existentes no seu dispositivo e processar estes dados para personalizar conteúdos e anúncios, assim como funcionalidades nas redes sociais e análise de tráfego.

  • Armazenar e/ou aceder a informações no seu dispositivo

    Os cookies, identificadores do dispositivo ou outras informações podem ser armazenados ou acedidos no seu dispositivo, para os fins acima indicados.

  • Anúncios e conteúdos personalizados, medição de anúncios e conteúdos, dados sobre o público-alvo e desenvolvimento de produtos

    Os anúncios e os conteúdos podem ser personalizados com base num perfil. Podem ser adicionados dados adicionais para uma maior personalização dos anúncios e dos conteúdos. A eficácia dos anúncios e dos conteúdos pode ser medida. Podem ser obtidas informações sobre o público que visualizou os anúncios e os conteúdos. Estes dados podem ser usados para desenvolver ou melhorar sistemas, softwares ou a experiência do utilizador.

Ao clicar em "Eu concordo”, permitirá o uso de cookies, identificadores do dispositivo e web beacons mencionados ou outras tecnologias semelhantes. As configurações do navegador do seu dispositivo podem ser alteradas.

Para certos fins, podem ser invocados interesses legítimos ao invés de consentimento. Pode ler mais informação sobre este assunto na nossa Política de Privacidade e Cookies.